Weather Roundup
Issued by NWS Springfield, MO

Home | Current Version | Previous Version | Text Only | Print | Product List | Glossary On
Versions: 1 2 3 4 5 6 7 8 9 10 11 12 13 14 15 16 17 18 19 20 21 22 23 24 25 26 27 28 29 30 31 32 33 34 35 36 37 38 39 40 41 42 43 44 45 46 47 48 49 50
000
NZUS99 KSGF 260507
HRRSGF

HOURLY WEATHER
NATIONAL WEATHER SERVICE SPRINGFIELD MO
1200 AM CDT FRI MAY 26 2017

......SGF CWA......

CITY           SKY/WX    TMP DP  RH WIND       PRES   REMARKS
SPRINGFIELD    CLOUDY    68  56  65 S16       29.71S
JOPLIN         PTCLDY    71  58  63 SE7       29.66R
WEST PLAINS    CLEAR     64  55  72 S7        29.80R
ROLLA          CLEAR     62  53  72 SE9       29.76R
OSAGE BEACH    PTCLDY    64  54  69 SE5       29.75R
BRANSON        PTCLDY    64  55  72 SE9       29.74F

......SURROUNDING SGF CWA......

CITY           SKY/WX    TMP DP  RH WIND       PRES   REMARKS
CHANUTE        CLOUDY    70  58  65 SE12      29.60F
PARSONS        CLOUDY    71  59  65 SE7       29.61S
COFFEYVILLE    CLOUDY    72  61  68 SE9       29.60R
EMPORIA        MOCLDY    68  59  73 E6        29.66R
GROVE OK       PTCLDY    70  59  68 SE7       29.65F
ROGERS AR      CLOUDY    67  58  72 SE9       29.70F
SILOAM SPRINGS PTCLDY    70  55  60 SE9       29.68S
HARRISON AR    PTCLDY    66  57  72 SE12      29.75S
NEAR YELLVILLE PTCLDY    66  54  63 CALM      29.74R

......KANSAS AND MISSOURI......

CITY           SKY/WX    TMP DP  RH WIND       PRES   REMARKS
KANSAS CTY INT CLOUDY    67  56  67 SE9       29.69R
DOWNTOWN KC    CLOUDY    68  57  68 CALM      29.68R
COLUMBIA       PTCLDY    64  54  69 SE8       29.75R
SEDALIA        PTCLDY    65  58  78 SE9       29.73R
ST JOSEPH      MOCLDY    65  57  75 SE3       29.68S
ST LOUIS       PTCLDY    67  51  56 E3        29.81R
SPIRIT OF STL  PTCLDY    59  56  89 CALM      29.78R
KIRKSVILLE     CLOUDY    61  53  75 E6        29.76R
WICHITA        MOCLDY    71  61  70 E8        29.55R
TOPEKA         CLOUDY    67  60  78 E6        29.67R
OLATHE         CLOUDY    65  57  75 SE6       29.69R

......TENNESSEE......

CITY           SKY/WX    TMP DP  RH WIND       PRES   REMARKS
MEMPHIS        PTCLDY    67  57  70 S8        29.83S
NASHVILLE      CLEAR     57  53  86 S6        29.89R

......ARKANSAS.......

CITY           SKY/WX    TMP DP  RH WIND       PRES   REMARKS
FAYETTEVILLE   CLOUDY    70  60  70 S12G20    29.69F
FT SMITH       PTCLDY    70  59  68 E6        29.69R
LITTLE ROCK    PTCLDY    67  62  84 SE8       29.77S

......OKLAHOMA.......

CITY           SKY/WX    TMP DP  RH WIND       PRES   REMARKS
TULSA          MOCLDY    75  63  66 SE14G23   29.57S
PONCA CITY     PTCLDY    74  59  59 SE16      29.52S
MCALESTER      MOCLDY    79  62  56 S10G21    29.64S
OKLAHOMA CITY  MOCLDY    74  60  61 S12G22    29.55R

......IOWA............

CITY           SKY/WX    TMP DP  RH WIND       PRES   REMARKS
DES MOINES     MOCLDY    66  52  60 VRB6      29.70F
QUAD CITIES    PTCLDY    61  55  81 SE9       29.75S

......ILLINOIS........

CITY           SKY/WX    TMP DP  RH WIND       PRES   REMARKS
QUINCY         CLOUDY    64  53  67 SW6G18    29.76F
CHICAGO        PTCLDY    55  49  80 CALM      29.78R



USA.gov is the U.S. government's official web portal to all federal, state and local government web resources and services.